Wind_Speed
41 42 44 45 48 51 55 58 61 65 67 67 71 71 74 78 76 77 79 80 83 87 90 93 96 97 98 100 101 102 103 105 108 112 116 111 106 105 104 102 105 109 109 103
44 46 49 51 53 55 58 58 61 62 65 65 68 69 72 78 77 79 80 80 81 82 86 89 93 95 99 101 103 105 107 108 108 109 111 112 112 112 110 109 107 107 109 113
48 49 50 51 53 54 56 56 58 59 62 65 66 67 70 77 80 81 81 82 83 84 86 89 93 96 99 101 102 105 107 110 111 111 111 111 109 111 111 109 107 106 110 111
45 47 50 53 54 55 57 59 59 61 62 61 70 65 72 77 83 85 86 88 88 89 89 89 92 95 98 101 102 103 106 109 109 111 114 113 111 109 108 109 108 108 110 114
46 48 51 55 57 60 63 64 63 64 66 66 72 74 74 81 87 87 89 90 90 92 93 93 94 93 95 99 102 101 105 105 105 106 107 109 111 110 111 109 108 110 112 114
46 50 55 61 64 67 71 71 71 72 72 73 75 77 75 83 85 86 88 89 88 88 86 86 88 91 95 98 100 102 103 103 103 101 98 100 104 111 108 103 103 109 113 115
51 57 63 68 70 72 74 74 73 70 71 72 75 76 79 83 85 86 87 85 84 85 85 87 87 87 87 89 91 94 92 94 92 93 92 91 95 101 103 103 105 108 107 110
54 59 65 69 71 72 72 74 75 76 76 74 78 77 79 83 86 88 86 82 83 87 86 83 82 81 81 82 81 82 81 85 79 81 80 82 85 90 94 94 95 100 104 108
58 59 64 66 69 72 71 73 78 81 79 76 71 73 70 74 77 80 78 76 78 81 81 82 82 82 83 84 82 79 78 77 74 72 71 71 74 78 82 84 85 89 93 101
62 58 65 66 69 71 73 74 75 77 73 72 67 64 70 74 76 80 77 78 78 80 80 80 82 78 75 73 72 72 69 69 66 63 62 63 64 65 71 73 73 78 84 90
64 66 69 70 67 69 71 72 74 75 76 73 69 60 75 75 75 75 75 77 77 77 77 73 71 66 64 65 64 64 64 63 59 57 58 58 57 59 64 66 66 71 74 79
70 73 72 71 69 67 69 73 74 75 75 73 77 64 75 73 73 69 71 68 67 64 63 62 66 60 58 56 54 56 58 54 54 52 52 51 53 58 57 59 61 63 66 69
75 76 73 65 67 65 67 70 73 72 72 72 75 67 67 65 62 63 62 63 62 59 59 53 54 50 50 47 48 51 52 47 48 47 45 47 48 50 51 52 55 57 60 62
73 72 73 67 66 66 66 72 75 74 75 67 71 60 70 60 57 56 54 54 54 51 51 47 42 41 41 41 44 47 49 39 42 42 39 38 43 42 43 46 49 53 55 55
73 74 68 65 66 68 72 76 76 77 70 65 67 62 54 50 44 41 41 40 39 40 39 35 34 36 37 39 40 39 39 40 41 36 34 32 39 41 40 40 45 47 48 46
73 69 61 64 68 74 77 77 80 73 70 63 54 48 43 40 38 34 33 31 30 30 29 27 29 29 31 34 35 34 41 38 34 33 25 24 34 36 36 37 37 39 38 32
72 68 64 64 71 77 75 77 71 68 58 49 42 37 33 30 27 25 23 20 17 16 16 18 18 19 24 27 28 32 29 30 32 25 22 24 36 30 29 34 34 33 28 23
70 68 66 67 76 78 75 68 64 55 46 36 31 28 24 20 18 16 13 11 8 5 9 10 10 13 16 18 20 23 20 15 19 19 22 28 25 30 25 24 24 23 17 13
70 70 72 71 75 74 75 67 56 44 32 30 28 24 20 16 11 9 7 6 4 3 4 5 6 8 11 14 16 19 16 15 20 21 22 24 27 26 19 15 12 8 7 12
73 74 76 74 73 70 64 59 45 35 28 21 18 14 12 13 14 12 13 14 13 11 11 10 3 3 8 11 15 15 16 19 19 15 19 20 19 10 8 5 10 13 15 14
72 75 76 72 68 70 62 50 38 30 19 12 9 11 11 11 10 9 10 9 10 10 10 11 11 9 3 5 8 11 14 17 15 16 15 14 8 11 14 22 27 29 26 25
70 75 74 70 64 66 58 42 33 20 13 8 8 8 7 10 9 5 5 5 5 6 6 5 5 7 8 8 5 7 7 8 11 14 12 10 16 23 31 40 45 42 39 35
70 74 72 68 60 58 48 37 22 15 10 9 7 6 6 7 6 5 5 6 6 6 5 4 4 8 7 7 8 8 7 8 9 14 19 27 28 39 49 49 49 43 36 35
69 73 69 62 58 54 40 26 21 11 4 2 4 6 7 5 3 3 7 9 10 12 10 5 1 6 14 9 10 10 14 21 30 34 32 39 46 55 51 50 47 41 37 33
69 66 63 59 53 47 34 21 14 6 4 3 4 6 7 4 5 4 7 12 13 15 14 9 8 10 14 18 17 21 29 42 43 44 45 49 53 55 56 52 46 39 34 30
69 62 53 49 44 39 24 16 9 2 2 3 5 4 6 7 8 12 16 21 20 18 14 15 14 12 16 22 30 38 46 48 50 51 51 54 58 58 53 50 41 38 29 21
Wind_Direction
274 274 273 273 272 271 270 269 269 271 271 271 272 272 272 271 268 266 264 263 264 265 265 264 263 262 260 259 259 259 258 256 254 251 249 250 251 254 255 255 257 259 259 257
276 277 278 277 275 272 271 271 271 271 271 270 271 272 273 273 271 269 266 264 263 262 263 264 265 265 265 264 262 261 259 258 256 255 254 250 250 252 253 254 255 257 258 257
279 280 280 278 278 278 277 274 273 272 274 275 272 271 272 273 273 270 268 266 264 263 263 262 263 263 262 261 260 260 261 261 261 258 256 254 250 250 250 253 254 254 256 257
282 283 284 284 283 281 279 277 275 274 274 275 279 274 276 276 276 275 273 270 267 265 263 263 264 265 265 265 263 261 260 259 258 259 260 259 256 252 249 248 249 252 253 254
288 290 290 290 289 288 288 286 285 284 284 280 280 279 276 275 275 275 274 273 270 269 268 266 264 264 265 265 264 264 263 261 258 256 255 257 259 258 254 250 248 247 250 253
294 296 297 297 296 295 295 294 293 290 287 285 282 280 280 277 277 277 276 275 274 273 270 269 268 267 267 266 264 262 262 262 261 260 258 256 256 256 256 254 251 249 247 248
301 302 301 299 297 297 297 296 293 292 290 287 284 283 281 280 279 277 276 276 275 275 275 274 271 267 265 264 264 263 262 261 261 260 259 257 256 256 255 252 250 249 248 247
300 300 299 297 294 294 296 295 294 292 289 287 286 284 280 278 278 278 278 278 277 275 275 274 273 272 273 272 269 268 266 265 263 261 258 257 255 255 256 254 250 248 248 247
300 300 300 298 297 297 298 298 296 296 295 292 289 286 286 281 279 279 280 278 275 273 272 272 272 271 272 271 269 268 266 265 263 262 260 259 256 255 257 256 252 248 247 245
307 309 308 306 303 301 300 301 300 297 294 291 292 291 287 282 281 280 280 276 274 274 274 273 272 271 268 267 265 266 265 264 262 261 261 260 259 256 255 255 252 249 246 243
310 312 310 309 304 300 300 301 298 298 300 299 294 291 289 283 282 281 280 279 278 277 276 274 271 268 263 261 262 261 262 261 259 256 258 259 258 255 251 252 251 249 247 244
310 310 312 311 307 305 304 305 304 303 305 303 294 301 291 288 285 284 281 280 278 275 272 271 270 268 265 260 257 254 255 255 253 253 255 256 255 253 253 252 252 251 249 246
309 309 310 311 307 306 308 306 304 306 304 301 298 298 292 288 290 286 282 279 278 276 275 273 270 267 262 257 249 247 249 248 250 250 251 252 253 251 252 252 252 250 250 248
316 317 317 313 311 313 312 310 310 310 307 305 302 299 293 293 286 282 279 276 274 274 274 270 267 261 257 250 244 242 247 248 243 245 246 248 250 253 252 252 253 252 250 250
322 322 319 315 315 317 315 314 314 312 311 309 304 302 298 297 292 286 280 278 278 272 272 270 263 256 253 248 244 244 247 241 245 241 234 244 252 251 251 255 256 257 255 250
326 323 320 318 321 320 318 318 317 315 314 311 309 305 300 295 291 289 285 278 275 275 273 268 260 252 251 245 244 238 242 248 249 233 229 240 254 251 253 258 262 263 262 256
324 323 321 322 324 321 319 320 318 315 314 312 310 307 303 297 292 285 282 283 280 272 270 262 255 258 253 244 237 239 247 244 242 217 224 246 253 258 254 256 260 264 267 259
323 322 321 323 323 323 322 321 320 320 316 313 312 310 308 308 305 298 293 286 278 282 279 271 260 255 240 226 227 234 230 222 202 218 232 242 253 260 257 261 268 278 273 253
322 321 320 323 324 324 326 326 323 320 318 316 315 317 317 322 326 322 323 324 317 305 299 285 277 251 211 208 221 223 218 217 215 222 234 246 255 258 264 269 269 250 203 185
322 321 321 324 324 323 327 326 323 318 317 320 327 341 9 22 31 36 47 42 38 44 46 32 348 246 219 194 200 210 204 203 217 231 244 251 255 252 225 183 155 135 135 151
322 322 319 322 325 324 330 324 320 316 320 324 356 0 20 20 24 37 48 52 46 46 53 60 46 40 74 173 177 187 190 203 208 226 236 244 220 181 147 134 119 118 129 135
318 321 319 321 325 325 329 321 314 308 301 319 347 355 353 6 9 7 28 32 358 6 29 60 86 73 52 70 105 114 148 182 194 229 239 167 150 142 128 124 128 128 128 126
319 319 320 319 324 323 325 318 308 298 314 325 342 15 27 23 26 55 51 22 1 337 1 33 81 122 126 128 149 147 137 117 116 132 127 137 137 119 124 126 131 128 130 136
318 316 316 316 321 322 322 309 302 288 304 16 46 49 43 51 6 308 299 300 295 289 282 286 63 143 151 168 164 161 103 103 127 130 133 125 125 126 131 134 136 138 144 147
314 313 314 314 318 318 316 298 280 286 326 347 4 357 13 9 13 296 284 287 291 284 279 270 243 211 193 174 158 126 123 129 129 127 124 124 126 128 132 137 139 138 138 142
309 310 311 313 313 313 309 283 270 283 323 293 279 304 30 345 330 307 291 284 287 280 260 258 235 209 179 163 134 129 131 133 130 127 125 118 128 135 138 138 146 140 136 131
Height
10785 10785 10784 10783 10781 10778 10775 10773 10769 10764 10763 10763 10753 10752 10745 10737 10739 10739 10737 10737 10736 10733 10729 10727 10726 10728 10729 10731 10733 10735 10737 10736 10743 10747 10754 10761 10765 10766 10773 10776 10777 10786 10797 10809
10774 10772 10770 10768 10765 10761 10758 10757 10753 10749 10744 10744 10738 10734 10727 10715 10716 10714 10714 10717 10717 10714 10709 10703 10701 10701 10698 10701 10704 10706 10709 10709 10715 10718 10721 10732 10739 10744 10750 10753 10759 10764 10771 10779
10762 10759 10756 10751 10748 10746 10741 10739 10737 10734 10729 10724 10722 10718 10709 10696 10690 10689 10691 10692 10691 10689 10687 10684 10678 10676 10673 10675 10678 10678 10679 10682 10685 10688 10692 10699 10712 10718 10723 10730 10740 10745 10743 10748
10750 10746 10741 10736 10732 10728 10724 10721 10720 10716 10714 10712 10694 10704 10688 10677 10665 10662 10661 10660 10663 10662 10660 10659 10656 10653 10650 10648 10650 10654 10652 10653 10657 10659 10661 10668 10676 10687 10701 10707 10716 10720 10720 10720
10735 10732 10726 10720 10715 10710 10703 10700 10700 10696 10692 10688 10678 10672 10671 10655 10641 10639 10632 10629 10630 10631 10631 10634 10634 10632 10625 10621 10619 10622 10619 10621 10625 10629 10636 10641 10646 10656 10657 10673 10688 10692 10696 10694
10724 10719 10711 10703 10696 10688 10681 10679 10676 10672 10668 10663 10656 10648 10646 10625 10618 10611 10604 10600 10599 10602 10606 10604 10602 10600 10596 10591 10590 10591 10591 10593 10594 10600 10609 10615 10618 10617 10628 10645 10654 10655 10663 10673
10712 10705 10695 10685 10676 10669 10661 10656 10653 10651 10642 10637 10629 10626 10614 10603 10593 10587 10579 10579 10577 10575 10572 10568 10566 10565 10564 10561 10561 10560 10564 10564 10569 10573 10579 10587 10588 10590 10597 10610 10618 10625 10633 10643
10704 10695 10681 10670 10659 10653 10646 10635 10625 10620 10619 10618 10603 10599 10591 10576 10566 10559 10558 10558 10554 10544 10542 10540 10539 10540 10539 10538 10539 10539 10540 10538 10547 10549 10554 10558 10562 10565 10568 10579 10589 10598 10606 10614
10691 10685 10668 10656 10643 10632 10627 10614 10601 10592 10590 10584 10584 10574 10562 10547 10542 10535 10536 10533 10524 10518 10515 10514 10514 10517 10515 10511 10511 10515 10516 10518 10524 10527 10533 10537 10540 10544 10547 10553 10563 10572 10580 10588
10672 10669 10650 10640 10627 10616 10604 10591 10580 10567 10567 10563 10563 10555 10533 10522 10520 10511 10510 10504 10500 10494 10492 10491 10486 10490 10490 10487 10489 10492 10497 10499 10504 10511 10514 10517 10520 10526 10526 10530 10536 10542 10549 10560
10654 10647 10635 10623 10612 10600 10586 10575 10562 10553 10541 10534 10530 10537 10505 10501 10496 10491 10486 10479 10475 10472 10467 10464 10461 10463 10466 10468 10472 10474 10477 10481 10487 10494 10497 10500 10503 10505 10506 10509 10515 10520 10527 10536
10638 10628 10619 10607 10589 10579 10569 10555 10542 10531 10523 10511 10495 10512 10478 10474 10471 10469 10457 10454 10449 10447 10443 10442 10436 10442 10444 10449 10453 10456 10459 10465 10472 10480 10483 10484 10485 10488 10493 10496 10500 10505 10511 10519
10621 10610 10600 10590 10571 10564 10554 10538 10523 10514 10502 10493 10473 10473 10457 10451 10448 10440 10435 10429 10426 10424 10422 10423 10421 10424 10426 10432 10436 10439 10443 10452 10460 10467 10472 10473 10474 10478 10483 10482 10486 10491 10495 10505
10598 10588 10574 10562 10552 10545 10536 10519 10503 10491 10478 10472 10449 10451 10430 10431 10425 10418 10414 10410 10406 10407 10406 10406 10407 10409 10413 10417 10422 10426 10432 10443 10448 10454 10460 10461 10461 10468 10471 10472 10475 10478 10483 10493
10581 10570 10557 10543 10535 10526 10511 10500 10487 10469 10458 10448 10433 10421 10416 10408 10404 10400 10397 10396 10395 10393 10393 10394 10395 10398 10402 10407 10410 10419 10425 10433 10438 10445 10450 10452 10454 10458 10461 10462 10464 10468 10474 10482
10568 10557 10546 10532 10521 10508 10496 10477 10463 10449 10437 10426 10417 10406 10400 10395 10391 10389 10386 10384 10385 10384 10384 10385 10386 10387 10392 10396 10401 10410 10416 10424 10432 10437 10442 10446 10446 10451 10457 10455 10459 10460 10465 10472
10558 10546 10535 10524 10511 10495 10480 10467 10450 10434 10424 10414 10405 10397 10391 10387 10383 10380 10377 10377 10377 10377 10377 10379 10379 10381 10385 10390 10396 10403 10409 10416 10424 10428 10435 10440 10439 10447 10447 10448 10451 10453 10457 10462
10545 10534 10522 10515 10499 10480 10465 10453 10438 10424 10413 10406 10398 10392 10387 10383 10380 10377 10376 10374 10374 10373 10372 10373 10374 10376 10380 10385 10392 10398 10405 10412 10419 10424 10430 10434 10435 10438 10441 10444 10447 10449 10451 10455
10532 10520 10509 10500 10487 10470 10452 10438 10426 10416 10409 10401 10394 10390 10385 10381 10378 10374 10372 10371 10371 10371 10371 10371 10372 10374 10376 10381 10387 10394 10402 10408 10414 10419 10424 10426 10430 10432 10438 10442 10442 10444 10447 10449
10519 10506 10492 10484 10473 10460 10444 10430 10419 10411 10405 10398 10393 10389 10385 10381 10378 10376 10373 10373 10372 10373 10373 10372 10373 10375 10377 10378 10383 10390 10399 10405 10411 10416 10419 10424 10426 10431 10434 10434 10439 10442 10446 10449
10505 10493 10478 10470 10460 10446 10436 10422 10414 10407 10403 10397 10393 10389 10387 10384 10382 10380 10379 10377 10376 10376 10376 10376 10375 10374 10377 10380 10384 10392 10397 10403 10408 10411 10412 10415 10421 10426 10429 10435 10438 10443 10448 10451
10496 10482 10467 10459 10449 10437 10428 10418 10411 10405 10400 10396 10393 10390 10387 10386 10384 10383 10381 10380 10379 10379 10378 10379 10380 10382 10381 10383 10386 10390 10395 10398 10398 10405 10412 10415 10419 10426 10432 10438 10441 10446 10451 10455
10484 10470 10457 10446 10440 10428 10422 10412 10407 10403 10399 10395 10392 10390 10389 10387 10386 10385 10384 10382 10381 10381 10381 10381 10382 10386 10388 10389 10390 10393 10396 10399 10404 10406 10411 10420 10427 10431 10438 10444 10449 10453 10457 10461
10474 10457 10447 10439 10430 10420 10415 10409 10405 10401 10398 10395 10393 10391 10390 10388 10387 10386 10384 10383 10381 10380 10380 10382 10384 10385 10387 10389 10393 10396 10400 10402 10406 10409 10418 10425 10431 10438 10445 10452 10457 10461 10464 10469
10458 10449 10439 10426 10421 10413 10409 10406 10402 10399 10396 10395 10393 10392 10390 10389 10387 10385 10382 10380 10379 10378 10377 10379 10381 10382 10384 10389 10394 10400 10404 10409 10413 10419 10424 10432 10437 10443 10452 10459 10465 10466 10471 10475
10440 10434 10429 10420 10414 10407 10404 10401 10399 10398 10396 10395 10393 10391 10389 10387 10384 10381 10377 10374 10373 10371 10371 10373 10376 10379 10385 10390 10396 10402 10408 10415 10420 10425 10432 10439 10447 10453 10460 10466 10467 10474 10479 10486